Home > Weather > Strathcona County > Past weeks

Flag for Canada Weather for the Past 2 Weeks in Strathcona County, Alberta, Canada

Now
47 °F

Cool.


Feels Like: 44 °F
Forecast: 30 / 40 °F
Wind: 7 mph from West

Location: Edmonton Municipal

Current Time: Feb 9, 2016 at 4:10:10 PM

Latest Report: Feb 9, 2016 at 3:00 PM


Visibility: N/A

Pressure: 30.03 "Hg (27.49 "Hg at 728m altitude)

Humidity: 44%

Dew point: 26 °F

Location of Strathcona CountyLocation

Historic Weather in Strathcona County — Graph

°F

Strathcona County Temperature Yesterday

Maximum temperature yesterday: 42 °F (at 2:00 PM)
Minimum temperature yesterday: 28 °F (at 5:00 AM)
Average temperature yesterday: 34 °F

High & Low Weather Summary for the Past Weeks

 TemperatureHumidityPressure
High48 °F (Feb 9, 2:00 PM)98% (Jan 31, 8:00 AM)30.46 "Hg (Jan 31, 8:00 AM)
Low12 °F (Feb 3, 7:00 AM)32% (Feb 6, 1:00 PM)29.30 "Hg (Jan 28, 3:00 PM)
Average30 °F70%29.93 "Hg
* Reported Jan 25 3:00 PM — Feb 9 3:00 PM, Strathcona County, Weather by CustomWeather, © 2016

Note: Actual official high and low records may vary slightly from our data, if they occured in-between our weather recording intervals... More about our weather records

Advertising

Strathcona County Weather History for the Previous 24 Hours

 ConditionsComfort  
Time TempWeatherWind HumidityBarometerVisibility
3:00 PM
Tue, Feb 9
47 °FCool.7 mph44%30.03 "HgN/A
2:00 PM48 °FCool.7 mph44%30.05 "HgN/A
1:00 PM47 °FCool.6 mph47%30.08 "HgN/A
12:00 PM45 °FQuite cool.7 mph52%30.12 "HgN/A
11:00 AM41 °FQuite cool.2 mph64%30.15 "HgN/A
10:00 AM36 °FChilly.2 mph75%30.16 "HgN/A
9:00 AM36 °FChilly.6 mph75%30.17 "HgN/A
8:00 AM34 °FChilly.5 mph78%30.19 "HgN/A
7:00 AM35 °FChilly.5 mph76%30.19 "HgN/A
6:00 AM36 °FChilly.3 mph76%30.21 "HgN/A
5:00 AM37 °FChilly.5 mph71%30.21 "HgN/A
4:00 AM37 °FChilly.5 mph75%30.21 "HgN/A
3:00 AM36 °FChilly.1 mph78%30.22 "HgN/A
2:00 AM37 °FChilly.3 mph72%30.22 "HgN/A
1:00 AM35 °FChilly.3 mph78%30.24 "HgN/A
12:00 AM35 °FChilly.5 mph76%30.24 "HgN/A
11:00 PM
Mon, Feb 8
36 °FChilly.5 mph75%30.25 "HgN/A
10:00 PM37 °FChilly.7 mph70%30.28 "HgN/A
9:00 PM37 °FChilly.6 mph72%30.28 "HgN/A
8:00 PM37 °FChilly.3 mph70%30.29 "HgN/A
7:00 PM36 °FChilly.3 mph76%30.30 "HgN/A
6:00 PM37 °FChilly.1 mph72%30.32 "HgN/A
5:00 PM38 °FChilly.5 mph71%30.33 "HgN/A
4:00 PM41 °FQuite cool.3 mph60%30.31 "HgN/A
Weather by CustomWeather, © 2016

See weather overviewHow to use our weather pages